DateTimeUTC,F1_A11,F1_S11,BsB_S11,BsG_S11,BsR_S11,BbsB_S11,BbsG_S11,BbsR_S11,BaB_A11,BaG_A11,BaR_A11,Tu_S11,T_S11,Uu_S11,U_S11,P_S11,T1_A11
2021-07-05T04:00:00Z,00000200,20000000,,,,,,,0000.20,0000.01,-000.16,19.2,25.9,07.4,04.9,0666.9,31.2
2021-07-05T04:01:00Z,00000200,20000000,,,,,,,-000.38,-000.21,-000.23,19.2,25.9,07.2,04.8,0666.9,31.2
2021-07-05T04:02:00Z,00000200,20000000,,,,,,,0000.05,0000.28,0000.39,19.1,25.9,07.2,04.8,0666.9,31.2
2021-07-05T04:03:00Z,00000200,60000000,,,,,,,0000.20,0000.04,-000.13,19.1,25.9,07.3,04.8,0666.9,31.2
2021-07-05T04:04:00Z,00000200,40000000,0000.61,0000.04,0000.46,0000.25,0000.23,0000.25,-000.24,0000.03,-000.25,19.1,25.7,07.2,04.8,0667.8,31.1
2021-07-05T04:05:00Z,00000200,00000000,0001.17,-000.01,0000.26,0000.71,0000.12,0000.14,-000.09,-000.47,-000.04,19.2,25.6,07.2,04.9,0667.8,31.1
2021-07-05T04:06:00Z,00000200,00000000,0000.91,0000.24,0000.06,0000.02,-000.03,0000.02,0000.72,0000.29,0000.28,19.2,25.5,07.3,04.9,0667.8,31.1
2021-07-05T04:07:00Z,00000200,00000000,0000.85,-000.17,0000.16,-000.31,-000.12,0000.17,-000.01,0000.49,0000.17,19.2,25.6,07.3,05.0,0667.8,31.1
2021-07-05T04:08:00Z,00000200,00000000,0001.07,0000.14,0000.45,0000.10,-000.02,0000.02,-000.34,-000.31,-000.07,19.2,25.6,07.4,05.0,0667.8,31.2
2021-07-05T04:09:00Z,00000200,00000000,0001.13,0000.25,0000.15,-000.54,-000.02,-000.06,0000.25,-000.07,0000.25,19.3,25.6,07.2,04.9,0667.8,31.2
2021-07-05T04:10:00Z,00000200,00000000,0000.87,0000.06,0000.33,0000.20,0000.28,-000.38,-000.29,0000.58,0000.11,19.4,25.7,07.2,04.9,0667.9,31.2
2021-07-05T04:11:00Z,00000200,00000000,0000.85,0000.13,0000.28,-000.36,0000.07,0000.30,0000.33,-000.13,-000.12,19.5,25.7,07.1,04.9,0667.9,31.2
2021-07-05T04:12:00Z,00000200,00000000,0001.03,0000.24,0000.26,0000.30,0000.18,-000.18,-000.01,-000.48,-000.33,19.5,25.7,07.2,04.9,0667.8,31.2
2021-07-05T04:13:00Z,00000200,00000000,0000.50,0000.18,0000.21,0000.21,-000.01,0000.06,0000.29,0000.74,0000.36,19.5,25.7,07.2,04.9,0667.8,31.2
2021-07-05T04:14:00Z,00000200,00000000,0000.30,0000.32,0000.22,0000.27,-000.12,0000.07,-000.12,-000.13,0000.05,19.5,25.7,07.2,04.9,0667.8,31.2
2021-07-05T04:15:00Z,00000200,00000000,0000.20,-000.06,0000.27,0000.10,-000.15,0000.15,0000.25,-000.13,-000.25,19.4,25.7,07.2,04.9,0667.8,31.2
2021-07-05T04:16:00Z,00000200,00000000,0001.16,0000.41,-000.01,0000.37,0000.02,0000.21,-000.07,0000.09,0000.43,19.4,25.7,07.3,05.0,0667.8,31.2
2021-07-05T04:17:00Z,00000200,00000000,0000.32,0000.19,0000.26,0000.23,-000.09,0000.21,0000.07,0000.07,-000.24,19.4,25.7,07.2,04.9,0667.8,31.2
2021-07-05T04:18:00Z,00000200,00000000,0001.15,0000.14,0000.21,-000.02,0000.24,0000.07,-000.15,-000.37,0000.01,19.3,25.6,07.2,04.9,0667.8,31.2
2021-07-05T04:19:00Z,00000200,00000000,0000.94,0000.19,0000.18,0000.00,-000.17,0000.01,0000.24,0000.60,0000.24,19.3,25.6,07.2,04.9,0667.8,31.2
2021-07-05T04:20:00Z,00000200,00000000,0000.87,0000.20,0000.26,-000.10,0000.15,0000.02,0000.03,-000.13,-000.06,19.3,25.6,07.2,04.9,0667.8,31.2
2021-07-05T04:21:00Z,00000200,00000000,0000.91,0000.49,0000.41,-000.07,-000.13,0000.03,0000.48,-000.14,0000.29,19.3,25.6,07.2,04.9,0667.8,31.2
2021-07-05T04:22:00Z,00000200,00000000,0001.10,0000.40,0000.18,0000.40,-000.07,0000.36,-000.12,0000.56,0000.08,19.3,25.5,07.2,04.9,0667.8,31.2
2021-07-05T04:23:00Z,00000200,00000000,0000.33,-000.03,-000.04,0000.24,-000.08,0000.10,-000.26,-000.07,-000.35,19.3,25.6,07.2,04.9,0667.8,31.2
2021-07-05T04:24:00Z,00000200,00000000,0000.58,0000.37,0000.32,-000.14,0000.21,0000.20,0000.52,-000.01,0000.34,19.3,25.6,07.3,05.0,0667.8,31.2
2021-07-05T04:25:00Z,00000200,00000000,0000.76,0000.34,0000.28,-000.43,-000.08,0000.19,-000.26,0000.00,-000.13,19.3,25.6,07.3,05.0,0667.8,31.2
2021-07-05T04:26:00Z,00000200,00000000,0000.38,0000.04,0000.00,0000.10,0000.25,-000.15,-000.50,0000.10,0000.05,19.3,25.6,07.3,05.0,0667.8,31.2
2021-07-05T04:27:00Z,00000200,00000000,0000.42,0000.19,-000.01,-000.23,0000.09,0000.05,0000.61,-000.01,0000.11,19.3,25.6,07.4,05.0,0667.8,31.2
2021-07-05T04:28:00Z,00000200,00000000,0000.32,0000.22,0000.36,-000.65,-000.29,0000.19,-000.04,0000.05,-000.09,19.3,25.6,07.3,05.0,0667.8,31.2
2021-07-05T04:29:00Z,00000200,00000000,0001.11,0000.00,0000.02,-000.58,-000.10,0000.04,0000.40,-000.05,0000.03,19.2,25.5,07.2,04.9,0667.8,31.1
2021-07-05T04:30:00Z,00000200,00000000,0001.45,0000.21,0000.46,0000.44,-000.13,0000.31,-000.57,-000.03,-000.02,19.2,25.5,07.3,04.9,0667.8,31.2
2021-07-05T04:31:00Z,00000200,00000000,0001.03,0000.15,0000.46,0000.30,-000.12,0000.38,0000.19,-000.04,-000.11,19.2,25.5,07.1,04.8,0667.8,31.2
2021-07-05T04:32:00Z,00000200,00000000,0001.06,0000.29,0000.42,0000.24,0000.18,0000.22,-000.08,0000.23,0000.55,19.1,25.5,07.0,04.8,0667.8,31.1
2021-07-05T04:33:00Z,00000200,00000000,0000.48,0000.14,0000.22,-000.25,0000.02,0000.06,0000.41,-000.02,-000.10,19.1,25.4,07.1,04.8,0667.8,31.1
2021-07-05T04:34:00Z,00000200,00000000,0000.72,-000.03,-000.07,0000.34,0000.09,0000.11,0000.12,0000.13,-000.21,19.1,25.4,07.1,04.8,0667.8,31.1
2021-07-05T04:35:00Z,00000200,00000000,0000.47,0000.30,0000.13,-000.31,0000.06,0000.06,-000.13,-000.32,0000.12,19.1,25.4,07.2,04.9,0667.8,31.1
2021-07-05T04:36:00Z,00000200,00000000,0001.07,0000.16,0000.28,0000.25,-000.13,0000.20,0000.22,0000.54,0000.13,19.1,25.4,07.2,04.9,0667.8,31.1
2021-07-05T04:37:00Z,00000200,00000000,0000.14,0000.19,-000.06,-000.20,0000.06,-000.14,-000.10,0000.23,0000.18,19.1,25.4,07.2,04.9,0667.8,31.1
2021-07-05T04:38:00Z,00000200,00000000,0000.97,0000.15,0000.14,0000.04,0000.27,0000.03,0000.26,-000.20,0000.03,19.2,25.4,07.2,04.9,0667.8,31.2
2021-07-05T04:39:00Z,00000200,00000000,0000.73,0000.03,0000.39,-000.54,-000.10,0000.40,0000.15,0000.28,0000.14,19.2,25.5,07.2,04.9,0667.8,31.2
2021-07-05T04:40:00Z,00000200,00000000,0000.84,0000.19,-000.26,0000.28,0000.20,-000.15,0000.23,0000.32,0000.34,19.3,25.5,07.1,04.9,0667.8,31.2
2021-07-05T04:41:00Z,00000200,00000000,0001.03,0000.29,0000.26,0000.41,-000.08,0000.40,0000.02,0000.07,-000.13,19.4,25.6,07.1,04.9,0667.8,31.2
2021-07-05T04:42:00Z,00000200,00000000,0000.44,0000.02,0000.46,-000.07,0000.09,0000.24,0000.16,-000.03,0000.08,19.5,25.6,07.2,04.9,0667.8,31.2
2021-07-05T04:43:00Z,00000200,00000000,-000.09,0000.33,0000.10,0000.16,0000.01,-000.33,0000.05,0000.09,0000.05,19.6,25.7,07.2,05.0,0667.8,31.2
2021-07-05T04:44:00Z,00000200,00000000,0000.81,0000.22,0000.36,-000.59,0000.26,0000.09,-000.12,0000.12,-000.32,19.6,25.7,07.2,04.9,0667.7,31.2
2021-07-05T04:45:00Z,00000200,00000000,0000.88,0000.32,0000.13,0000.34,-000.02,0000.12,0000.06,0000.08,0000.45,19.6,25.7,07.2,05.0,0667.7,31.2
2021-07-05T04:46:00Z,00000200,00000000,0001.25,0000.10,0000.18,0000.45,0000.11,0000.26,0000.36,-000.15,0000.04,19.5,25.7,07.3,05.0,0667.7,31.2
2021-07-05T04:47:00Z,00000200,00000000,0001.61,0000.32,0000.42,-000.00,0000.02,0000.11,0000.14,0000.56,0000.11,19.5,25.7,07.5,05.2,0667.7,31.2
2021-07-05T04:48:00Z,00000200,00000000,0001.06,0000.09,-000.01,-000.09,-000.04,-000.06,0000.21,-000.31,-000.17,19.4,25.6,07.5,05.2,0667.7,31.2
2021-07-05T04:49:00Z,00000200,00000000,0000.49,0000.13,0000.24,-000.68,0000.11,-000.13,0000.09,0000.82,0000.36,19.4,25.6,07.8,05.3,0667.7,31.2
2021-07-05T04:50:00Z,00000200,00000000,0000.88,0000.34,-000.12,0001.24,-000.10,-000.18,0000.28,-000.03,0000.19,19.4,25.6,07.9,05.4,0667.6,31.2
2021-07-05T04:51:00Z,00000200,00000000,0001.43,0000.39,0000.26,-000.24,0000.29,0000.09,0000.44,0000.36,0000.53,19.4,25.6,08.0,05.5,0667.6,31.2
2021-07-05T04:52:00Z,00000200,00000000,0000.65,0000.08,0000.36,-000.02,-000.08,-000.17,0000.07,0000.01,-000.33,19.4,25.6,08.1,05.5,0667.6,31.2
2021-07-05T04:53:00Z,00000200,00000000,0000.75,0000.18,0000.16,0000.39,-000.07,-000.06,0000.39,0000.15,0000.41,19.4,25.6,08.1,05.6,0667.6,31.2
2021-07-05T04:54:00Z,00000200,00000000,0001.10,0000.08,0000.14,0000.48,0000.12,0000.07,0000.03,0000.24,0000.10,19.5,25.7,08.1,05.6,0667.6,31.2
2021-07-05T04:55:00Z,00000200,00000000,0000.62,0000.26,0000.34,0000.61,-000.18,-000.13,-000.03,0000.01,0000.06,19.5,25.7,08.1,05.5,0667.6,31.2
2021-07-05T04:56:00Z,00000200,00000000,0000.79,-000.08,0000.23,-000.08,0000.18,0000.16,-000.01,-000.13,-000.22,19.5,25.7,08.1,05.6,0667.6,31.2
2021-07-05T04:57:00Z,00000200,40000000,,,,,,,-000.24,-000.32,-000.50,19.5,25.7,07.9,05.4,0667.6,31.2
2021-07-05T04:58:00Z,00000200,60000000,,,,,,,0000.25,0000.02,0000.47,19.2,25.8,08.1,05.4,0666.6,31.2
2021-07-05T04:59:00Z,00000200,20000000,,,,,,,-000.11,0000.01,0000.01,19.1,25.9,08.1,05.4,0666.5,31.2
